SCP
0 0 0 0 0 0 0 0 0 0 0 0 0 0 0 0 0 0 0 0 0 0 0 0 0 0 0 0 0 0 0 0 0 0 0 0 0 0 0 0 0 0 0 0 0 0 0 0 0
0 0 0 0 0 0 0 0 0 0 0 0 0 0 0 0 0 0 0 0 0 0 0 0 0 0 0 0 0 0 0 0 0 0 0 0 0 0 0 0 0 0 0 0 0 0 0 0 0
0 0 0 0 0 0 0 0 0 0 0 0 0 0 0 0 0 0 0 0 0 0 0 0 0 0 0 0 0 0 0 0 0 0 0 0 0 0 0 0 0 0 0 0 0 0 0 0 0
0 0 0 0 0 0 0 0 0 0 0 0 0 0 0 0 0 0 0 0 0 0 0 0 0 0 0 0 0 0 0 0 0 0 0 0 0 0 0 0 0 0 0 0 0 0 0 0 0
0 0 0 0 0 0 0 0 0 0 0 0 0 0 0 0 0 0 0 0 0 0 0 0 0 0 0 0 0 0 0 0 0 0 0 0 0 0 0 0 0 0 0 0 0 0 0 0 0
0 0 0 0 0 0 0 0 0 0 0 0 0 0 0 0 0 0 0 0 0 0 0 0 0 0 0 0 0 0 0 0 0 0 0 0 0 0 0 0 0 0 0 0 0 0 0 0 0
0 0 0 0 0 0 0 0 0 0 0 0 0 0 0 0 0 0 0 0 0 0 0 0 0 0 0 0 0 0 0 0 0 0 0 0 0 0 0 0 0 0 0 0 0 0 0 0 0
0 0 0 0 0 0 0 0 0 0 0 0 0 0 0 0 0 0 0 0 0 0 0 0 0 0 0 0 0 0 0 0 0 0 0 0 0 0 0 0 0 0 0 0 0 0 0 0 0
0 0 0 0 0 0 0 0 0 0 0 0 0 0 0 0 0 0 0 0 0 0 0 0 0 0 0 0 0 0 0 0 0 0 0 0 0 0 0 0 0 0 0 0 0 0 0 -0 -0
0 0 0 0 0 0 0 0 0 0 0 0 0 0 0 0 0 0 0 0 0 0 0 0 0 0 0 0 0 0 0 0 0 0 0 0 0 0 0 0 0 0 0 0 0 0 0 -0 -0
0 0 0 0 0 0 0 0 0 0 0 0 0 0 0 0 0 0 0 0 0 0 0 0 0 0 0 0 0 0 0 0 0 0 0 0 0 0 0 0 0 0 0 0 0 0 0 -0 -0
0 0 0 0 0 0 0 0 0 0 0 0 0 0 0 0 0 0 0 0 0 0 0 0 0 0 0 0 0 0 0 0 0 0 0 0 0 0 0 0 0 0 0 0 0 0 0 0 0
0 0 0 0 0 0 0 0 0 0 0 0 0 0 0 0 0 0 0 0 0 0 0 0 0 0 0 0 0 0 0 0 0 0 0 0 0 0 0 0 0 0 0 0 0 0 0 0 0
0 0 0 0 0 0 0 0 0 0 0 0 0 0 0 0 0 0 0 0 0 0 0 0 0 0 0 0 0 0 0 0 0 0 0 0 0 0 0 0 0 0 0 0 0 0 0 0 0
0 0 0 0 0 0 0 0 0 0 0 0 0 0 0 0 0 0 0 0 0 0 0 0 0 0 0 0 0 0 0 0 0 0 0 0 0 0 0 0 0 0 0 0 0 0 0 0 0
0 0 0 0 0 0 0 0 0 0 -0 0 0 0 0 0 0 0 0 0 0 0 0 0 0 0 0 0 0 0 0 0 0 0 0 0 0 0 0 0 0 0 0 0 0 0 0 0 0
0 0 0 0 0 0 0 0 0 -0 -0 0 0 0 0 0 0 0 0 0 0 0 0 0 0 0 0 0 0 0 0 0 0 0 0 0 0 0 0 0 0 0 0 0 0 0 0 0 0
0 0 0 0 0 0 0 0 -0 -0 -0 -0 0 0 0 0 0 0 0 0 0 0 0 0 0 0 0 0 0 0 0 0 0 0 0 0 0 0 0 0 0 0 0 0 0 0 0 0 0
0 0 0 0 0 0 0 0 -0 -0 -0 -0 0 0 0 0 0 0 0 0 0 0 0 0 0 0 0 0 0 0 0 0 0 0 0 0 0 0 0 0 0 0 0 0 0 0 0 0 0
0 0 0 0 0 0 0 0 0 -0 -0 -0 0 0 0 0 0 0 0 0 0 0 0 0 0 0 0 0 0 0 0 0 0 0 0 0 0 0 0 0 0 0 0 0 0 0 0 0 0
0 0 0 0 0 0 0 0 0 0 0 0 0 0 0 0 0 0 0 0 0 0 0 0 0 0 0 0 0 0 0 0 0 0 0 0 0 0 0 0 0 0 0 0 0 0 0 0 0
0 0 0 0 0 0 0 0 0 0 0 0 0 0 0 0 0 0 0 0 0 0 0 0 0 0 0 0 0 0 0 0 0 0 0 0 0 0 0 0 0 0 0 0 0 0 0 0 0
0 0 0 0 0 0 0 0 0 -0 0 0 0 0 0 0 0 0 0 0 0 0 0 0 0 0 0 0 0 0 0 0 0 0 0 0 0 0 0 0 0 0 0 0 0 0 0 0 0
0 0 0 0 0 0 0 0 0 -0 0 0 0 0 0 0 0 0 0 0 0 0 0 0 0 0 0 0 0 0 0 0 0 0 0 0 0 0 0 0 0 0 0 0 0 0 0 0 0
0 0 0 0 0 0 0 0 0 -0 -0 0 0 0 0 0 0 0 0 0 0 0 0 0 0 0 0 0 0 0 0 0 0 0 0 0 0 0 0 0 0 0 0 0 0 0 0 0 0
0 0 0 0 0 0 0 0 0 -0 -0 0 0 0 0 0 0 0 0 0 0 0 0 0 0 0 0 0 0 0 0 0 0 0 0 0 0 0 0 0 0 0 0 0 0 0 0 0 0
0 0 0 0 0 0 0 0 0 0 0 0 0 0 0 0 0 0 0 0 0 0 0 0 0 0 0 0 0 0 0 0 0 0 0 0 0 0 0 0 0 0 0 0 0 0 0 0 0
0 0 0 0 0 0 0 0 0 0 0 0 0 0 0 0 0 0 0 0 0 0 0 0 0 0 0 0 0 0 0 0 0 0 0 0 0 0 0 0 0 0 0 0 0 0 0 0 0
0 0 0 0 0 0 0 0 0 0 0 0 0 0 0 0 0 0 0 0 0 0 0 0 0 0 0 0 0 0 0 0 0 0 0 0 0 0 0 0 0 0 0 0 0 0 0 0 0
0 0 0 0 0 0 0 0 0 0 0 0 0 0 0 0 0 0 0 0 0 0 0 0 0 0 0 0 0 0 0 0 0 0 0 0 0 0 0 0 0 0 0 0 0 0 0 0 0
Wind_Speed
2 2 3 4 5 2 5 7 5 3 2 2 2 6 8 6 5 4 4 12 15 15 13 17 19 19 19 18 18 17 16 16 15 15 14 14 14 14 14 14 14 14 14 15 14 14 14 14 13
1 2 4 4 4 3 7 6 7 9 6 2 2 5 5 3 2 8 7 12 17 16 13 14 19 19 19 19 18 17 17 16 15 15 14 14 14 14 14 14 14 14 14 14 14 13 13 13 13
1 2 3 3 5 7 8 6 8 7 6 4 2 3 6 7 6 8 9 17 16 13 11 14 20 20 19 19 18 18 17 16 15 15 14 14 14 13 13 13 13 13 13 13 13 12 12 12 12
2 3 2 2 9 9 8 6 2 2 3 1 5 4 3 4 8 8 16 17 16 12 11 14 20 20 19 19 18 18 17 16 16 15 14 14 14 13 13 13 13 12 12 12 12 11 11 11 11
3 3 2 5 11 8 8 8 5 3 3 1 4 5 2 2 6 16 18 18 17 12 10 14 20 20 20 19 18 18 17 16 16 15 15 14 14 13 13 13 12 12 12 12 11 11 10 10 10
2 3 4 9 12 8 8 7 4 5 5 3 5 5 1 2 12 17 17 16 16 15 12 13 20 20 20 19 18 18 17 16 16 15 15 14 14 14 13 12 12 11 11 11 11 10 9 9 9
4 4 7 7 8 10 11 6 6 7 7 7 8 7 3 4 8 13 13 14 14 13 11 9 12 14 18 18 18 18 17 16 16 15 15 14 14 13 13 12 11 11 10 10 9 9 8 8 8
5 4 6 7 8 11 6 5 6 8 8 5 7 12 9 9 9 11 12 11 12 11 10 9 9 9 9 11 15 16 16 15 15 14 13 13 12 12 12 11 11 10 10 9 8 8 7 6 6
4 4 9 10 9 8 3 4 5 3 3 2 4 8 10 15 14 15 12 10 11 12 10 9 9 9 8 8 12 12 13 13 13 11 13 10 6 6 6 7 10 10 9 8 8 7 5 4 4
6 11 15 8 6 5 4 5 5 1 1 1 2 3 11 17 18 19 18 18 17 16 13 11 11 10 9 9 7 6 6 7 6 6 7 5 5 4 5 7 9 9 8 7 6 5 4 3 2
8 11 9 8 8 6 7 7 4 3 5 7 8 11 16 16 17 18 19 19 19 17 15 13 12 11 10 7 6 4 4 4 5 7 7 5 4 3 3 2 3 3 3 2 2 2 1 1 1
7 9 8 8 8 8 9 7 6 6 9 8 12 20 21 19 19 19 19 17 15 17 16 15 14 12 10 8 7 6 5 5 5 6 7 6 4 3 3 2 3 2 2 2 1 1 1 1 1
12 11 11 9 8 10 9 10 8 9 7 3 8 15 20 21 19 16 15 15 15 17 17 16 15 14 12 9 8 8 7 7 6 6 7 7 5 5 4 3 3 3 2 3 2 2 2 1 1
8 9 12 12 11 9 11 12 8 12 5 6 11 15 17 19 18 12 12 14 16 17 17 16 16 15 13 11 9 8 8 7 6 6 7 8 6 6 6 5 4 3 3 3 3 3 2 1 1
6 8 10 11 11 8 7 14 15 13 5 9 12 14 15 15 14 16 18 17 18 18 17 17 17 16 15 13 11 9 8 8 7 7 8 9 8 8 6 5 5 4 4 4 3 2 2 2 1
4 7 11 10 10 9 10 17 13 9 9 11 11 12 13 13 14 15 16 15 15 15 17 18 16 16 16 14 12 9 8 8 7 7 8 9 9 9 7 6 5 5 4 3 3 2 2 1 1
6 10 13 10 9 9 12 13 10 9 10 11 12 12 13 13 13 13 14 15 15 17 17 18 16 18 17 14 11 9 9 9 7 7 7 9 9 9 7 6 5 5 4 3 4 2 2 2 2
9 8 8 11 7 10 14 14 9 8 10 12 11 12 13 15 17 15 15 15 15 16 17 17 16 17 15 11 8 7 7 7 7 7 8 9 9 9 8 6 6 6 4 4 3 3 2 2 2
8 8 10 9 6 8 14 16 14 11 9 11 11 11 13 15 15 15 16 15 14 15 16 17 16 16 14 12 11 10 10 8 8 7 9 10 9 10 8 6 6 6 6 5 5 3 3 2 2
13 13 11 8 7 8 10 15 12 13 13 12 12 12 13 13 11 12 14 14 16 18 19 18 18 18 18 14 12 9 8 7 7 6 8 10 10 10 9 8 7 7 5 5 5 4 3 2 3
15 14 13 9 5 6 5 11 13 12 12 13 13 12 12 15 16 14 15 16 16 18 19 18 20 19 18 14 9 6 5 4 5 7 8 9 10 11 9 9 8 7 7 7 7 6 6 4 2
14 10 11 11 7 6 6 8 9 11 12 15 15 14 13 13 14 14 15 16 17 18 18 19 19 19 18 15 14 15 11 11 11 9 8 8 10 10 10 10 9 8 7 7 7 6 4 5 3
8 5 8 9 9 9 7 8 8 7 13 16 16 16 15 14 14 14 15 17 17 17 17 17 17 18 17 17 18 17 13 9 6 6 8 9 8 9 10 10 9 9 7 7 7 6 6 5 4
6 2 4 5 6 12 13 10 10 9 14 12 14 15 14 13 13 13 13 13 14 15 14 15 17 17 18 19 18 18 16 12 10 10 10 9 7 7 10 10 9 9 7 8 7 7 7 6 5
6 5 4 6 8 10 9 11 12 9 10 12 13 15 15 13 13 12 12 13 14 15 16 16 18 18 18 19 18 18 17 16 15 13 12 10 8 8 11 10 9 8 8 7 7 7 7 7 6
9 10 8 6 6 4 6 12 10 9 9 9 11 11 11 13 13 14 14 14 15 16 17 17 18 17 18 19 18 17 16 13 11 12 11 11 9 9 9 10 9 9 8 8 7 6 6 6 6
8 10 7 3 2 3 6 7 7 6 8 9 9 8 10 12 12 13 12 13 14 15 17 18 18 17 18 18 17 15 15 14 12 11 10 9 8 7 9 10 9 9 8 8 8 6 7 6 6
6 5 5 6 6 6 6 7 7 6 10 10 10 11 11 10 10 11 11 11 12 13 13 14 16 17 15 16 16 13 15 14 12 11 12 11 10 9 10 10 10 9 9 9 8 6 6 7 6
5 6 5 5 5 5 5 8 7 10 10 11 12 10 10 10 10 10 9 9 10 10 11 13 13 13 13 14 14 13 13 13 12 11 12 11 10 10 11 11 10 10 9 9 8 7 8 8 6
4 5 6 5 5 5 4 9 4 5 5 6 7 6 6 8 8 8 8 7 8 9 10 12 12 13 13 13 12 12 12 12 12 12 12 11 11 11 11 10 10 10 10 9 10 9 8 8 8
Wind_Direction
239 106 93 66 60 57 241 242 229 243 238 226 161 126 131 138 157 171 133 138 138 148 157 156 154 151 148 144 138 135 131 129 125 122 121 118 115 112 108 105 102 99 96 93 91 90 89 89 89
143 120 72 72 117 208 250 236 230 237 215 189 121 110 105 107 118 125 132 149 144 149 153 154 154 151 149 145 142 139 135 132 130 127 126 123 119 115 111 109 106 102 98 96 93 92 91 91 91
190 134 112 118 177 201 228 229 220 251 236 203 129 93 132 151 148 156 156 147 143 148 150 155 155 153 151 148 145 142 139 137 134 133 131 128 124 120 116 113 109 105 101 99 98 95 93 93 91
104 76 84 164 229 224 220 240 232 296 296 199 134 100 119 162 167 157 143 145 143 146 149 157 156 155 153 151 149 146 144 142 140 138 135 132 128 123 120 116 113 110 107 104 102 99 97 95 93
86 111 184 235 239 241 237 243 245 249 238 225 126 124 120 343 137 136 143 147 147 147 151 159 158 157 155 153 152 149 147 146 144 142 140 136 132 128 124 122 119 116 114 111 107 103 100 96 94
112 120 187 229 239 247 249 238 233 237 237 216 132 126 140 119 136 145 148 148 149 150 154 160 160 158 157 156 154 152 151 151 149 147 144 141 137 134 131 128 126 122 118 115 110 106 102 96 92
161 167 215 224 240 250 246 226 215 224 226 211 153 129 145 165 153 144 144 144 147 151 154 157 159 159 160 158 157 156 155 154 152 150 147 144 140 139 136 134 131 127 123 119 115 111 106 99 91
171 174 224 221 226 243 237 218 220 206 222 204 145 148 178 191 152 133 134 140 147 153 156 155 153 154 155 158 159 158 157 156 155 150 144 143 143 142 141 138 137 135 130 126 124 119 113 99 86
152 199 224 216 214 235 239 234 252 225 183 167 172 178 178 150 139 134 137 144 156 161 162 158 154 154 151 155 162 159 159 158 154 147 146 139 133 135 140 147 146 144 141 138 135 130 121 99 75
182 219 227 219 213 233 259 245 250 269 239 155 63 77 130 145 150 154 160 164 169 171 171 166 161 159 156 162 155 155 154 153 147 146 144 137 139 146 150 159 157 154 151 149 148 142 119 93 51
199 223 230 236 242 253 266 267 252 197 234 207 177 157 150 158 162 166 171 173 174 172 172 171 168 165 164 158 155 154 148 149 151 154 150 147 145 149 147 148 156 153 148 135 134 110 94 106 115
230 239 225 230 236 246 254 260 264 228 229 217 179 162 160 167 173 176 176 176 172 172 176 173 172 170 169 162 162 162 160 162 165 166 160 154 154 160 161 161 162 159 151 150 138 139 143 146 162
237 247 249 246 240 239 250 250 250 253 251 203 161 163 170 176 182 183 179 174 171 175 178 176 175 174 173 166 169 171 172 174 173 170 170 166 164 169 170 172 171 173 166 162 164 164 160 162 163
238 244 251 252 250 248 246 255 247 249 225 172 169 178 184 185 183 176 174 177 179 180 179 177 178 177 174 174 175 176 177 176 174 176 176 173 170 170 172 173 176 179 176 171 169 172 168 168 157
251 254 261 249 239 237 243 258 243 242 203 187 189 190 193 196 186 185 185 183 183 182 179 178 179 177 178 177 179 177 178 177 180 182 181 178 174 172 171 172 177 183 176 165 156 155 142 144 142
234 233 244 241 222 223 212 246 246 234 205 206 202 198 199 201 197 196 191 186 183 179 179 180 180 179 180 179 179 178 179 179 182 181 182 182 178 172 169 173 181 178 166 160 157 153 141 151 154
215 224 231 244 215 206 212 242 244 226 212 215 209 204 202 205 206 204 197 191 186 183 180 181 182 181 182 179 177 175 177 181 182 181 182 184 180 174 172 176 178 169 165 167 169 159 156 166 178
211 216 226 225 218 207 225 240 243 236 217 221 215 210 208 206 209 203 200 195 190 187 184 183 182 181 179 175 170 170 175 182 182 185 185 181 181 177 173 174 175 169 166 172 169 164 159 164 171
245 237 240 239 230 218 233 242 242 237 233 233 226 215 214 215 212 205 201 194 189 187 186 185 183 180 176 177 179 181 186 184 185 189 187 183 182 179 176 176 175 174 177 180 172 158 161 168 142
246 248 251 263 248 236 244 251 248 237 229 226 225 222 216 217 213 205 202 195 190 189 189 188 187 183 184 186 185 184 178 180 183 183 187 187 184 183 182 178 179 178 174 174 176 162 156 170 159
237 235 237 245 276 257 260 264 249 245 236 233 227 222 216 211 210 205 200 197 193 192 191 190 190 187 187 181 167 153 145 148 174 188 192 192 188 186 184 183 180 179 177 184 186 177 169 176 193
239 236 236 241 241 244 216 257 248 231 236 233 229 224 219 215 211 206 200 197 196 195 193 192 189 187 186 177 176 176 182 190 192 188 190 189 190 188 186 184 183 183 184 185 188 184 175 162 181
235 232 235 242 237 246 231 245 260 222 231 231 226 224 222 216 209 206 202 199 198 194 191 191 189 188 184 183 184 185 192 193 175 173 180 187 191 191 187 184 184 186 188 188 185 180 180 177 175
227 237 247 241 235 240 223 227 258 218 221 227 225 223 221 217 214 211 206 199 197 193 190 188 187 190 186 186 187 190 191 183 174 182 187 190 190 192 192 187 187 188 188 189 188 184 183 187 181
201 187 207 210 218 237 199 213 246 232 227 222 222 221 219 215 211 208 203 199 196 192 189 188 187 190 188 188 190 193 192 188 189 189 191 189 189 195 196 190 190 190 190 187 181 182 188 187 187
203 196 203 206 212 235 192 221 242 228 229 229 227 222 216 214 213 210 205 199 196 193 190 188 188 189 188 190 193 193 191 190 194 192 192 194 197 197 188 189 190 189 186 184 182 186 189 186 191
189 207 210 235 255 238 229 250 278 241 238 236 233 224 219 217 214 210 205 200 195 191 190 188 188 188 189 191 191 191 190 190 191 189 190 192 191 183 181 185 187 187 185 184 181 190 189 184 190
200 176 176 199 210 228 241 238 233 220 224 227 226 225 226 221 216 211 205 200 195 191 189 185 186 188 188 189 190 190 191 192 188 183 189 190 187 180 179 184 187 187 186 185 183 184 181 180 188
185 194 209 204 213 202 233 250 218 213 214 216 224 225 223 220 215 210 205 199 194 185 181 182 185 184 185 187 187 187 189 188 184 187 190 188 183 180 181 184 185 188 188 185 185 188 179 184 187
207 202 194 211 226 220 230 262 263 241 227 218 234 248 241 232 224 208 196 186 183 184 183 183 184 185 186 185 182 185 183 182 185 189 188 184 183 183 183 181 184 188 188 186 186 187 185 187 189